Location: *
(46.3500°N, 10.9000°E)
Time: 21:12:31
(UTC+00:00)

A-11 Canister half - Pass Details

Date: 29 April 2021
Orbit: 1526 x 1682 km, 47.3° (Epoch: 13 May)

Event Time Altitude Azimuth Distance (km) Brightness Sun altitude
Rises 18:20:36 0° 293° (WNW) 4,923 17.1 -0.5°
Reaches altitude 10° 18:23:55 10° 287° (WNW) 3,942 13.3 -1.0°
Maximum altitude 18:33:20 45° 219° (SW) 2,163 10.0 -2.5°
Drops below altitude 10° 18:42:41 10° 151° (SSE) 3,914 10.6 -4.0°
Sets 18:45:59 0° 145° (SE) 4,885 11.1 -4.5°
